Tracking 35275 objects as of 9-Sep-2026
HD Live streaming from Space Station
objects crossing your sky now

IRIDIUM 33 DEB


IRIDIUM 33 DEB is no longer on orbit


NORAD ID: 34160
Int'l Code: 1997-051EP
Launch date: September 14, 1997
Source: United States (US)
Launch site: TYURATAM MISSILE AND SPACE COMPLEX (TTMTR)
Decay date: 2023-06-24

Note: This is SATELLITE DEBRIS
Your satellite tracking list
Your tracking list is empty




NASA's NSSDC Master Catalog

Two Line Element Set (TLE):
1 34160U 97051EP  23174.64336277  .08334783  10674+0  35254-1 0  9994
2 34160  86.3777  48.8862 0025157 231.5208 128.3817 15.90184955758435
Source of the keplerian elements: AFSPC